Islip, NY

5:18 AM EST on December 11, 2017 (GMT -0500)
Long Island Mac Arthur

Weather History for KISP - February, 2012

Change the Weather History Date:

Wednesday, February 22, 2012

  Actual Average Record
Temperature  
Mean Temperature 47 °F 34 °F  
Max Temperature 56 °F 42 °F 66 °F (1991)
Min Temperature 37 °F 26 °F 12 °F (2001)
Degree Days  
Heating Degree Days 18 31  
Month to date heating degree days 603 720  
Since 1 July heating degree days 2970 3712  
Cooling Degree Days 0 0  
Month to date cooling degree days 0 0  
Year to date cooling degree days 0 0  
Moisture  
Dew Point 36 °F    
Average Humidity 64    
Maximum Humidity 93    
Minimum Humidity 35    
Precipitation  
Precipitation T in 0.12 in 1.93 in (2003)
Month to date precipitation 0.41 2.45  
Year to date precipitation 3.07 6.09  
Snow  
Snow 0.00 in 0.30 in 5.50 in (2008)
Month to date snowfall 0.6 5.6  
Since 1 July snowfall 4.7 18.2  
Snow Depth 0.00 in    
Sea Level Pressure  
Sea Level Pressure 29.69 in    
Wind  
Wind Speed 9 mph (SW)    
Max Wind Speed 20 mph    
Max Gust Speed 26 mph    
Visibility 10 miles    
Events Rain    
T = Trace of Precipitation, MM = Missing Value Source: NWS Daily Summary

Daily Weather History Graph

Daily Weather History Graph

Search for Another Location

Airport or City:

Trip Planner

Search our weather history database for the weather conditions in past years. The results will help you decide how hot, cold, wet, or windy it might be!

Date:

Astronomy

Feb. 22, 2012 Rise Set
Actual Time 6:37 AM EST 5:34 PM EST
Civil Twilight 6:09 AM EST 6:02 PM EST
Nautical Twilight 5:37 AM EST 6:34 PM EST
Astronomical Twilight 5:06 AM EST 7:06 PM EST
Moon 6:33 AM EST (2/22) 6:39 PM EST (2/22)
Length of Visible Light 11h 52m
Length of Day
10h 57m
New Moon, 1% of the Moon is Illuminated
Feb 22
New Moon
Feb 29
First Quarter
Mar 8
Full
Mar 14
Last Quarter
Mar 22
New

Hourly Weather History & Observations

Time (EST) Temp. Windchill Dew Point Humidity Pressure Visibility Wind Dir Wind Speed Gust Speed Precip Events Conditions
12:56 AM 41.0 °F 38.0 °F 39.0 °F 93% 29.83 in 10.0 mi SSW 4.6 mph - N/A   Overcast
1:56 AM 39.9 °F 36.7 °F 37.0 °F 89% 29.81 in 10.0 mi SW 4.6 mph - N/A   Overcast
2:56 AM 41.0 °F 35.8 °F 37.9 °F 89% 29.78 in 10.0 mi SSW 8.1 mph - N/A   Overcast
3:56 AM 39.9 °F 37.8 °F 37.0 °F 89% 29.76 in 10.0 mi SW 3.5 mph - N/A   Overcast
4:56 AM 39.9 °F 36.7 °F 37.0 °F 89% 29.75 in 10.0 mi SW 4.6 mph - N/A   Overcast
5:56 AM 39.9 °F 36.7 °F 37.0 °F 89% 29.74 in 10.0 mi SW 4.6 mph - N/A   Mostly Cloudy
6:56 AM 37.0 °F 32.4 °F 35.1 °F 93% 29.75 in 6.0 mi WSW 5.8 mph - N/A   Mostly Cloudy
7:56 AM 43.0 °F 39.5 °F 39.0 °F 86% 29.75 in 8.0 mi WSW 5.8 mph - N/A   Scattered Clouds
8:56 AM 46.9 °F - 37.9 °F 71% 29.76 in 10.0 mi WSW 9.2 mph - N/A   Mostly Cloudy
9:56 AM 51.1 °F - 36.0 °F 56% 29.76 in 10.0 mi WSW 10.4 mph - N/A   Overcast
10:56 AM 53.1 °F - 30.9 °F 43% 29.74 in 10.0 mi WSW 15.0 mph 20.7 mph N/A   Overcast
11:56 AM 52.0 °F - 34.0 °F 50% 29.72 in 10.0 mi SSW 13.8 mph - N/A   Overcast
12:56 PM 51.1 °F - 32.0 °F 48% 29.68 in 10.0 mi SW 16.1 mph 24.2 mph N/A   Overcast
1:56 PM 55.0 °F - 28.9 °F 37% 29.66 in 10.0 mi SW 16.1 mph - N/A   Scattered Clouds
2:56 PM 54.0 °F - 28.0 °F 37% 29.65 in 10.0 mi SW 15.0 mph 24.2 mph N/A   Partly Cloudy
3:56 PM 53.1 °F - 28.0 °F 38% 29.63 in 10.0 mi SW 10.4 mph - N/A   Scattered Clouds
4:56 PM 50.0 °F - 28.9 °F 44% 29.63 in 10.0 mi South 11.5 mph - N/A   Mostly Cloudy
5:56 PM 46.0 °F 41.0 °F 39.9 °F 79% 29.63 in 10.0 mi SSW 10.4 mph - N/A   Mostly Cloudy
6:56 PM 45.0 °F 40.1 °F 39.9 °F 82% 29.62 in 10.0 mi South 9.2 mph - N/A   Mostly Cloudy
7:56 PM 46.0 °F 40.6 °F 39.0 °F 76% 29.63 in 10.0 mi SSW 11.5 mph 18.4 mph N/A   Mostly Cloudy
8:56 PM 46.9 °F - 37.9 °F 71% 29.61 in 10.0 mi South 6.9 mph - N/A   Mostly Cloudy
9:56 PM 46.0 °F 42.5 °F 39.9 °F 79% 29.59 in 10.0 mi South 6.9 mph - 0.00 in Rain Light Rain
10:56 PM 46.9 °F - 42.1 °F 83% 29.55 in 10.0 mi SSE 4.6 mph - 0.00 in   Overcast
11:56 PM 48.0 °F - 43.0 °F 83% 29.51 in 10.0 mi South 9.2 mph - 0.00 in Rain Light Rain